Fresno, CA

11:25 AM PDT on April 22, 2018 (GMT -0700)
Fresno Yosemite International

Weather History for KFAT - August, 2013

Change the Weather History Date:

Friday, August 23, 2013

  Actual Average Record
Temperature  
Mean Temperature 81 °F 81 °F  
Max Temperature 96 °F 96 °F 112 °F (1891)
Min Temperature 65 °F 66 °F 51 °F (1960)
Degree Days  
Heating Degree Days 0    
Month to date heating degree days 0  
Since 1 June heating degree days 0  
Since 1 July heating degree days 0  
Cooling Degree Days 16    
Month to date cooling degree days 413  
Year to date cooling degree days 1994  
Since 1 June cooling degree days 1587  
Growing Degree Days 30 (Base 50)    
Moisture  
Dew Point 51 °F    
Average Humidity 43    
Maximum Humidity 67    
Minimum Humidity 19    
Precipitation  
Precipitation 0.00 in 0.00 in 0.01 in (1959)
Month to date precipitation T 0.00  
Year to date precipitation 2.28 7.85  
Since 1 July precipitation T  
Snow  
Snow 0.00 in - - ()
Month to date snowfall 0.0  
Since 1 June snowfall 0.0  
Since 1 July snowfall 0.0  
Snow Depth 0.00 in    
Sea Level Pressure  
Sea Level Pressure 29.81 in    
Wind  
Wind Speed 8 mph (NW)    
Max Wind Speed 15 mph    
Max Gust Speed 23 mph    
Visibility 10 miles    
Events      
T = Trace of Precipitation, MM = Missing Value Source: NWS Daily Summary

Daily Weather History Graph

Daily Weather History Graph

Search for Another Location

Airport or City:

Astronomy

Aug. 23, 2013 Rise Set
Actual Time 6:22 AM PDT 7:39 PM PDT
Civil Twilight 5:55 AM PDT 8:06 PM PDT
Nautical Twilight 5:23 AM PDT 8:38 PM PDT
Astronomical Twilight 4:50 AM PDT 9:11 PM PDT
Moon 9:07 PM PDT (8/23) 9:17 AM PDT (8/23)
Length of Visible Light 14h 10m
Length of Day
13h 16m
Waning Gibbous, 91% of the Moon is Illuminated
Aug 23
Waning Gibbous
Aug 28
Last Quarter
Sep 5
New
Sep 12
First Quarter
Sep 19
Full

Hourly Weather History & Observations

Time (PDT) Temp. Heat Index Dew Point Humidity Pressure Visibility Wind Dir Wind Speed Gust Speed Precip Events Conditions
12:53 AM 73.9 °F - 53.1 °F 48% 29.84 in 10.0 mi WNW 11.5 mph - N/A   Scattered Clouds
1:53 AM 72.0 °F - 54.0 °F 53% 29.84 in 10.0 mi WNW 10.4 mph - N/A   Scattered Clouds
2:53 AM 70.0 °F - 53.1 °F 55% 29.83 in 10.0 mi NW 9.2 mph - N/A   Partly Cloudy
3:53 AM 68.0 °F - 53.1 °F 59% 29.83 in 10.0 mi NW 9.2 mph - N/A   Partly Cloudy
4:53 AM 66.9 °F - 53.1 °F 61% 29.83 in 10.0 mi NNW 5.8 mph - N/A   Partly Cloudy
5:53 AM 64.9 °F - 53.1 °F 65% 29.84 in 10.0 mi WNW 6.9 mph - N/A   Partly Cloudy
6:53 AM 64.9 °F - 53.1 °F 65% 29.86 in 10.0 mi Variable 3.5 mph - N/A   Partly Cloudy
7:53 AM 66.9 °F - 52.0 °F 59% 29.87 in 10.0 mi NNW 3.5 mph - N/A   Clear
8:53 AM 71.1 °F - 52.0 °F 51% 29.88 in 10.0 mi Calm Calm - N/A   Clear
9:53 AM 75.0 °F - 52.0 °F 44% 29.87 in 10.0 mi Calm Calm - N/A   Clear
10:53 AM 81.0 °F - 52.0 °F 36% 29.87 in 10.0 mi Variable 4.6 mph - N/A   Clear
11:53 AM 84.9 °F 83.2 °F 53.1 °F 33% 29.85 in 10.0 mi NW 5.8 mph - N/A   Clear
12:53 PM 88.0 °F - 48.9 °F 26% 29.83 in 10.0 mi WNW 4.6 mph - N/A   Clear
1:53 PM 91.0 °F - 48.0 °F 23% 29.81 in 10.0 mi West 6.9 mph - N/A   Clear
2:53 PM 93.0 °F - 48.0 °F 21% 29.78 in 10.0 mi WNW 9.2 mph - N/A   Clear
3:53 PM 95.0 °F - 46.0 °F 19% 29.76 in 10.0 mi WNW 10.4 mph - N/A   Clear
4:53 PM 95.0 °F - 46.0 °F 19% 29.74 in 10.0 mi NW 13.8 mph - N/A   Partly Cloudy
5:53 PM 93.9 °F - 46.0 °F 19% 29.73 in 10.0 mi WNW 10.4 mph - N/A   Partly Cloudy
6:53 PM 91.9 °F - 45.0 °F 20% 29.73 in 10.0 mi WNW 12.7 mph - N/A   Scattered Clouds
7:53 PM 88.0 °F - 48.0 °F 25% 29.73 in 10.0 mi WNW 11.5 mph - N/A   Scattered Clouds
8:53 PM 84.9 °F - 48.0 °F 28% 29.75 in 10.0 mi NW 9.2 mph - N/A   Scattered Clouds
9:53 PM 82.0 °F - 50.0 °F 33% 29.76 in 10.0 mi NW 10.4 mph - N/A   Scattered Clouds
10:53 PM 79.0 °F - 52.0 °F 39% 29.77 in 10.0 mi NW 10.4 mph - N/A   Scattered Clouds
11:53 PM 77.0 °F - 53.1 °F 43% 29.78 in 10.0 mi WNW 8.1 mph - N/A   Partly Cloudy